TOURFACTS.DK  
Stats and Facts from Tour de France.

Tour de France 2019 starts in 348 days
  Riders   Stages   Teams   Summits   Yearly  


 
Search by year

After 2018 - Stage 14:
 15000 starters.
  5163 different riders.
  639 teams.
  2246 stages.
  456 restdays.
  441957.60 km.
  5678 abandonnees.


Top 3
GC
Christopher Froome86:20:55
Rigoberto Urán86:21:49
Romain Bardet86:23:15
Climb
Warren Barguil169 pt.
Primoz Roglic80 pt.
Thomas De Gendt64 pt.
Sprint
Michael Matthews359 pt.
André Greipel234 pt.
Edvald Boasson Hagen220 pt.
Youth
Simon Yates86:27:09
Louis Meintjes86:29:15
Emanuel Buchmann86:54:16
Facts from Tour de France 1994
  |   Stages.  |   Stage winners.  |   Days in yellow  |   Average speed.  |   Route.  |   Teams.  |   All riders.  |   Rookies.  |  

  |   Withdrawls.  |   GC.  |   Polka  |   Green  |   White  |   Summits. (In tour)  |   Miscellaneous.  |  

Stage 12 on July 15th. 1994
         Owning:    Miguel Indurain    
Pick a stage:  Pro 1 2 3 4 5 6 7 8 9 10 11 12 13 14 15 16 17 18 19 20 21
From: Lourdes    To: Luz-ArdidenDist:204.50 km.
Cat: 3Côte de LoucrupBELPeter De Clercq
10 points
 
Cat: 4Côte de Haut de la CôteMARRichard Virenque
5 points
 
Cat: 3Côte de MauvezinMARRichard Virenque
10 points
 
Cat: 1Col de PeyresourdeFRARoberto Torres
30 points
 
Cat: 1Col d'AspinMARRichard Virenque
30 points
 
Cat: HCol du TourmaletMARRichard Virenque
40 points
 
Cat: HLuz ArdidenMARRichard Virenque
40 points
 

Average speed for all riders in stage:  30,953 km./hr.
    Place:Name:Team:Time:Km/h:
MARRichard VirenqueESPFestina-Andorra06:08:32  +  00:00:00=33,294 
ITAMarco PantaniITACarrera Jeans-Tassoni06:13:06  +  00:04:34=32,887 
ITAOscar PelliccioliITAPolti-Vaporetto06:14:24  +  00:05:52=32,772 
4 COLNelson RodriguezITAZG Mobili-Selle Italia06:15:34  +  00:07:02=32,671 
5 URSVladimir PoulnikovITACarrera Jeans-Tassoni06:16:14  +  00:07:42=32,613 
6 ESPMiguel IndurainESPBanesto06:16:14  +  00:07:42=32,613 
7 FRALuc LeblancESPFestina-Andorra06:16:14  +  00:07:42=32,613 
8 ESPLaudelino CubinoESPKelme-Avianca06:16:46  +  00:08:14=32,567 
9 COLHernán BuenahoraESPKelme-Avianca06:18:15  +  00:09:43=32,439 
10 COLAngel OchoaESPKelme-Avianca06:18:15  +  00:09:43=32,439 
11 RUSPavel TonkovITALampre-Panaria06:18:15  +  00:09:43=32,439 
12 FRAPascal HerveESPFestina-Andorra06:18:39  +  00:10:07=32,405 
13 FRAArmand De Las CuevasFRACastorama06:18:40  +  00:10:08=32,403 
14 FRAThomas DavyFRACastorama06:18:54  +  00:10:22=32,383 
15 DENBjarne RiisITAGewiss-Ballan06:18:59  +  00:10:27=32,376 
16 GERUdo BöltsDEUTelecom06:19:16  +  00:10:44=32,352 
17 DENTony RomingerBELMapei-Clas06:19:23  +  00:10:51=32,342 
18 ITAAlberto ElliITAGB-MG Maglificio06:19:39  +  00:11:07=32,319 
19 SUIAlex ZülleESPO.N.C.E.06:19:43  +  00:11:11=32,314 
20 ESPRamon GonzalezESPBanesto06:19:43  +  00:11:11=32,314 
21 FRAPascal LinoESPFestina-Andorra06:19:47  +  00:11:15=32,308 
22 FRACharly MottetFRANovemail-Histor-Laser Computer06:19:47  +  00:11:15=32,308 
23 SUILaurent DufauxESPO.N.C.E.06:19:49  +  00:11:17=32,305 
24 ESPFernando EscartinBELMapei-Clas06:19:52  +  00:11:20=32,301 
25 FRAJean-François BernardESPBanesto06:19:55  +  00:11:23=32,297 
26 BELJim Van De LaerBELLotto-Veta-Caloi06:20:30  +  00:11:58=32,247 
27 DENBo HamburgerNLDTVM-Bison06:20:53  +  00:12:21=32,215 
28 DDRGerd AudehmDEUTelecom06:20:59  +  00:12:27=32,206 
29 URSPiotr UgrumovITAGewiss-Ballan06:20:59  +  00:12:27=32,206 
30 ESPAbraham OlanoBELMapei-Clas06:20:59  +  00:12:27=32,206 
31 ITARoberto ContiITALampre-Panaria06:20:59  +  00:12:27=32,206 
32 FRAÉric CaritouxFRAChazal-MBK-Konig06:21:34  +  00:13:02=32,157 
33 ITAAndrea PeronITAPolti-Vaporetto06:21:39  +  00:13:07=32,150 
34 COLAlvaro MejiaUSAMotorola06:22:47  +  00:14:15=32,055 
35 URSViatcheslav EkimovBELWordperfect06:23:11  +  00:14:39=32,021 
36 ITAGianluca BortolamiBELMapei-Clas06:24:38  +  00:16:06=31,901 
37 ESPJon UnzagaBELMapei-Clas06:24:38  +  00:16:06=31,901 
38 ESPFederico EchaveBELMapei-Clas06:24:38  +  00:16:06=31,901 
39 COLFederico FernandezESPKelme-Avianca06:24:38  +  00:16:06=31,901 
40 SUIBeat ZbergITACarrera Jeans-Tassoni06:24:53  +  00:16:21=31,880 
41 ITAFranco VonaITAGB-MG Maglificio06:25:54  +  00:17:22=31,796 
42 ITABruno CenghialtaITAGewiss-Ballan06:25:54  +  00:17:22=31,796 
43 URSSerguei OutschakovITAPolti-Vaporetto06:26:48  +  00:18:16=31,722 
44 FRAJean-Claude BagotESPFestina-Andorra06:27:05  +  00:18:33=31,699 
45 DDRJens HeppnerDEUTelecom06:27:05  +  00:18:33=31,699 
46 GERRolf AldagDEUTelecom06:27:05  +  00:18:33=31,699 
47 NEDErik BreukinkESPO.N.C.E.06:27:05  +  00:18:33=31,699 
48 URSArturas KasputisFRAChazal-MBK-Konig06:27:25  +  00:18:53=31,671 
49 ESPJosé UriarteESPBanesto06:27:52  +  00:19:20=31,635 
50 DENRolf SørensenITAGB-MG Maglificio06:28:04  +  00:19:32=31,618 
51 ESPArsenio GonzálezBELMapei-Clas06:28:16  +  00:19:44=31,602 
52 MEXMiguel ArroyoFRAChazal-MBK-Konig06:28:16  +  00:19:44=31,602 
53 FRAEddy SeigneurFRAGan06:28:31  +  00:19:59=31,582 
54 FRAFrançois SimonFRACastorama06:28:33  +  00:20:01=31,579 
55 USALance ArmstrongUSAMotorola06:28:41  +  00:20:09=31,568 
56 FRAGérard RuéESPBanesto06:29:12  +  00:20:40=31,526 
57 ITAEnrico ZainaITAGewiss-Ballan06:29:58  +  00:21:26=31,464 
58 COLOliverio RincónESPO.N.C.E.06:33:52  +  00:25:20=31,153 
59 AUSNeil StephensESPO.N.C.E.06:33:52  +  00:25:20=31,153 
60 ITARemo RossiITACarrera Jeans-Tassoni06:33:52  +  00:25:20=31,153 
61 BELLuc RoosenBELLotto-Veta-Caloi06:33:52  +  00:25:20=31,153 
62 BELCarlo BomansITAGB-MG Maglificio06:33:52  +  00:25:20=31,153 
63 ITADavide PeronaITAZG Mobili-Selle Italia06:33:52  +  00:25:20=31,153 
64 SUIRolf JärmannITAGB-MG Maglificio06:33:52  +  00:25:20=31,153 
65 URSDimitri ZhdanovITAPolti-Vaporetto06:33:52  +  00:25:20=31,153 
66 ENGSean YatesUSAMotorola06:33:58  +  00:25:26=31,145 
67 NEDMarco VermeyFRAChazal-MBK-Konig06:35:55  +  00:27:23=30,991 
68 NEDPatrick JonkerFRANovemail-Histor-Laser Computer06:35:55  +  00:27:23=30,991 
69 DENJesper SkibbyNLDTVM-Bison06:36:10  +  00:27:38=30,972 
70 SUIJörg MüllerBELMapei-Clas06:36:10  +  00:27:38=30,972 
71 ESPIgnacio GarciaESPKelme-Avianca06:36:25  +  00:27:53=30,952 
72 FRALaurent MadouasFRACastorama06:36:34  +  00:28:02=30,941 
73 FRAThierry MarieFRACastorama06:36:34  +  00:28:02=30,941 
74 ESPVicente AparicioESPBanesto06:37:54  +  00:29:22=30,837 
75 ITAGiorgio FurlanITAGewiss-Ballan06:39:24  +  00:30:52=30,721 
76 ITAFranco ChioccioliITAMercatone Uno-Medeghini06:40:35  +  00:32:03=30,630 
77 BELHendrik RedantITAZG Mobili-Selle Italia06:45:11  +  00:36:39=30,283 
78 URSAndrei TchmilBELLotto-Veta-Caloi06:45:11  +  00:36:39=30,283 
79 ITAGiancarlo PeriniITAZG Mobili-Selle Italia06:45:11  +  00:36:39=30,283 
80 ITAMassimo GhirottoITAZG Mobili-Selle Italia06:45:11  +  00:36:39=30,283 
81 ITAMauro-Antonio SantaromitaITAZG Mobili-Selle Italia06:45:11  +  00:36:39=30,283 
82 ITADavide CassaniITAGB-MG Maglificio06:45:47  +  00:37:15=30,238 
83 ESPRaúl AlcaláUSAMotorola06:45:54  +  00:37:22=30,229 
84 ESPÁngel EdoESPKelme-Avianca06:45:54  +  00:37:22=30,229 
85 GERChristian HennDEUTelecom06:45:54  +  00:37:22=30,229 
86 FRAEmmanuel MagnienFRACastorama06:45:54  +  00:37:22=30,229 
87 SUIGianni BugnoITAPolti-Vaporetto06:45:54  +  00:37:22=30,229 
88 FRAJean-Claude ColottiFRAGan06:45:54  +  00:37:22=30,229 
89 NEDErwin NijboerESPBanesto06:45:54  +  00:37:22=30,229 
90 URSDjamolidine AbduzhaparovITAPolti-Vaporetto06:45:54  +  00:37:22=30,229 
91 ENGPhil AndersonUSAMotorola06:45:54  +  00:37:22=30,229 
92 DDRErik ZabelDEUTelecom06:45:54  +  00:37:22=30,229 
93 FRAChristophe ManinFRAChazal-MBK-Konig06:45:54  +  00:37:22=30,229 
94 NORDag Otto LauritzenNLDTVM-Bison06:45:54  +  00:37:22=30,229 
95 NEDJean-Paul van PoppelESPFestina-Andorra06:45:54  +  00:37:22=30,229 
96 FRAPascal ChanteurFRAChazal-MBK-Konig06:45:54  +  00:37:22=30,229 
97 ESPMelchor MauriESPBanesto06:45:54  +  00:37:22=30,229 
98 FRARonan PensecFRANovemail-Histor-Laser Computer06:45:54  +  00:37:22=30,229 
99 ESPHerminio ZabalaESPO.N.C.E.06:45:54  +  00:37:22=30,229 
100 ITAFlavio VanzellaITAGB-MG Maglificio06:45:54  +  00:37:22=30,229 
101 URSVladislav BobrikITAGewiss-Ballan06:45:54  +  00:37:22=30,229 
102 FRAFrancis MoreauFRAGan06:45:54  +  00:37:22=30,229 
103 ITARosario FinaITAMercatone Uno-Medeghini06:45:54  +  00:37:22=30,229 
104 ESPMarino MonjeESPBanesto06:45:54  +  00:37:22=30,229 
105 BELNico EmondsBELMapei-Clas06:45:54  +  00:37:22=30,229 
106 NEDRob MuldersBELWordperfect06:45:54  +  00:37:22=30,229 
107 ITAMarco LiettiITALampre-Panaria06:45:54  +  00:37:22=30,229 
108 ESPJose-Roberto AguerroESPO.N.C.E.06:45:54  +  00:37:22=30,229 
109 ITAMarco SerpelliniITALampre-Panaria06:45:54  +  00:37:22=30,229 
110 ESPAlberto LeanizbarrutiaESPO.N.C.E.06:45:54  +  00:37:22=30,229 
111 FRABruno ThiboutFRACastorama06:45:54  +  00:37:22=30,229 
112 BELPeter FarazijnBELLotto-Veta-Caloi06:45:54  +  00:37:22=30,229 
113 NORAtle KvålsvollBELWordperfect06:45:54  +  00:37:22=30,229 
114 FRAChristophe CapelleFRAGan06:45:54  +  00:37:22=30,229 
115 FRAJean-Pierre BourgeotFRAChazal-MBK-Konig06:45:54  +  00:37:22=30,229 
116 ESPFrancisco CabelloESPKelme-Avianca06:45:54  +  00:37:22=30,229 
117 COLJulio-César CadenaESPKelme-Avianca06:45:54  +  00:37:22=30,229 
118 NEDGerrit De VriesFRANovemail-Histor-Laser Computer06:45:54  +  00:37:22=30,229 
119 ITAMario MantovanITACarrera Jeans-Tassoni06:45:54  +  00:37:22=30,229 
120 FRALaurent DesbiensFRACastorama06:45:54  +  00:37:22=30,229 
121 BELMichel VermoteESPFestina-Andorra06:45:54  +  00:37:22=30,229 
122 DDRUwe RaabDEUTelecom06:45:54  +  00:37:22=30,229 
123 BELHerman FrisonBELLotto-Veta-Caloi06:45:54  +  00:37:22=30,229 
124 FRAPhilippe LouviotFRANovemail-Histor-Laser Computer06:45:54  +  00:37:22=30,229 
125 BELJohan MuseeuwITAGB-MG Maglificio06:45:54  +  00:37:22=30,229 
126 FRAThierry GouvenouFRAGan06:45:54  +  00:37:22=30,229 
127 BELWilfried PeetersITAGB-MG Maglificio06:45:54  +  00:37:22=30,229 
128 ITAAlessio GallettiITALampre-Panaria06:45:54  +  00:37:22=30,229 
129 BELMarc WautersBELWordperfect06:45:54  +  00:37:22=30,229 
130 BELMarc SergeantFRANovemail-Histor-Laser Computer06:45:54  +  00:37:22=30,229 
131 DDRMario KummerDEUTelecom06:45:54  +  00:37:22=30,229 
132 SVKJán SvoradaITALampre-Panaria06:45:54  +  00:37:22=30,229 
133 NZLStephen SwartUSAMotorola06:45:54  +  00:37:22=30,229 
134 BELGuy NulensFRANovemail-Histor-Laser Computer06:45:54  +  00:37:22=30,229 
135 ITAGuido BontempiITAGewiss-Ballan06:45:54  +  00:37:22=30,229 
136 DDROlaf LudwigDEUTelecom06:45:54  +  00:37:22=30,229 
137 BELRudy VerdonckBELLotto-Veta-Caloi06:45:54  +  00:37:22=30,229 
138 NEDErik DekkerBELWordperfect06:45:54  +  00:37:22=30,229 
139 NEDBart VoskampNLDTVM-Bison06:45:54  +  00:37:22=30,229 
140 AUSStephen HodgeESPFestina-Andorra06:45:54  +  00:37:22=30,229 
141 ITAMario ScireaITAPolti-Vaporetto06:45:54  +  00:37:22=30,229 
142 BELEric Van LanckerBELWordperfect06:45:54  +  00:37:22=30,229 
143 ITAMario ChiesaITACarrera Jeans-Tassoni06:45:54  +  00:37:22=30,229 
144 FRAJacky DurandFRACastorama06:45:54  +  00:37:22=30,229 
145 BELJohan CapiotNLDTVM-Bison06:45:54  +  00:37:22=30,229 
146 BELPeter De ClercqBELLotto-Veta-Caloi06:45:54  +  00:37:22=30,229 
147 NEDEdwig Van HooydonckBELWordperfect06:45:54  +  00:37:22=30,229 
148 USAFrankie AndreuUSAMotorola06:45:54  +  00:37:22=30,229 
149 ITADario BottaroITAGewiss-Ballan06:45:54  +  00:37:22=30,229 
150 BELMichel DerniesUSAMotorola06:45:54  +  00:37:22=30,229 
151 ITAMarco ZenITALampre-Panaria06:45:54  +  00:37:22=30,229 
152 FRAJean-Philippe DojwaFRAGan06:46:18  +  00:37:46=30,199 
153 POLCesary ZamanaESPKelme-Avianca06:47:34  +  00:39:02=30,106 
154 ITAMarco ArtunghiITACarrera Jeans-Tassoni06:47:41  +  00:39:09=30,097 
155 NEDJohn TalenITAMercatone Uno-Medeghini06:47:59  +  00:39:27=30,075 
156 ITASilvio MartinelloITAMercatone Uno-Medeghini06:48:13  +  00:39:41=30,058 
157 BELMario De ClercqBELLotto-Veta-Caloi06:48:25  +  00:39:53=30,043 
158 NEDRob HarmelingNLDTVM-Bison06:48:32  +  00:40:00=30,034 
159 ITAEros PoliITAMercatone Uno-Medeghini06:49:00  +  00:40:28=30,000 
160 FRARoberto TorresESPFestina-Andorra06:52:08  +  00:43:36=29,772 
161 ITAGiovanni FidanzaITAPolti-Vaporetto06:56:11  +  00:47:39=29,482 

Withdrawls: 12
 
Rider
Team
Reason
47  ITANicola MinaliITAGewiss-BallanDid not finish
51  ITAClaudio ChiappucciITACarrera Jeans-TassoniDid not start
53  ITAAlessandro BertoliniITACarrera Jeans-TassoniDid not finish
73  ITAGianni FaresinITALampre-PanariaDid not start
121  NEDSteven RooksNLDTVM-BisonDid not finish
126  DENPeter Meinert NielsenNLDTVM-BisonDid not finish
128  NEDGert-Jan TheunisseNLDTVM-BisonDid not finish
143  ITAStefano ColagèITAZG Mobili-Selle ItaliaDid not start
155  NEDLeon van BonBELWordperfectDid not start
187  URSJaan KirsipuuFRAChazal-MBK-KonigDid not finish
204  ITAPaolo LanfranchiITAMercatone Uno-MedeghiniDid not finish
206  ITAGiuseppe PetitoITAMercatone Uno-MedeghiniDid not finish

Todays birthdays.

1877  Antoine Perrichon
1878  Auguste Berthault
1911  Théo Herckenrath
1924  Carlo Lafranchi
1931  Armand Di Caro
1937  Jean-Claude Lebaube
1951  Giovanni Battaglin
1961  Pascal Jules
1962  Jean-Claude Leclercq
1976  Janek Tombak
1978  Francisco Pérez
1983  Dries Devenyns




Visits: